Change the Weather History Date:

Friday, February 8, 2013

  Actual Average Record
Temperature  
Mean Temperature 47 °F -  
Max Temperature 57 °F 49 °F 71 °F (2009)
Min Temperature 37 °F 26 °F 10 °F (1977)
Degree Days  
Heating Degree Days 18    
Moisture  
Dew Point 35 °F    
Average Humidity 74    
Maximum Humidity 97    
Minimum Humidity 37    
Precipitation  
Precipitation 0.03 in - - ()
Sea Level Pressure  
Sea Level Pressure 29.93 in    
Wind  
Wind Speed 5 mph (NW)    
Max Wind Speed 18 mph    
Max Gust Speed 28 mph    
Visibility 9 miles    
Events Rain    
Averages and records for this station are not official NWS values.
T = Trace of Precipitation, MM = Missing Value Source: NWS Daily Summary

Daily Weather History Graph

Daily Weather History Graph

Search for Another Location

Airport or City:

Trip Planner

Search our weather history database for the weather conditions in past years. The results will help you decide how hot, cold, wet, or windy it might be!

Date:

Astronomy

Feb. 08, 2013 Rise Set
Actual Time 7:19 AM EST 6:00 PM EST
Civil Twilight 6:52 AM EST 6:27 PM EST
Nautical Twilight 6:22 AM EST 6:57 PM EST
Astronomical Twilight 5:52 AM EST 7:27 PM EST
Moon 5:45 AM EST (2/8) 4:33 PM EST (2/8)
Length of Visible Light 11h 34m
Length of Day
10h 41m
Waning Crescent, 3% of the Moon is Illuminated
Feb 8
Waning Crescent
Feb 10
New
Feb 17
First Quarter
Feb 25
Full
Mar 4
Last Quarter

Hourly Weather History & Observations

Time (EST) Temp. Windchill Dew Point Humidity Pressure Visibility Wind Dir Wind Speed Gust Speed Precip Events Conditions
12:53 AM 37.9 °F 34.4 °F 36.0 °F 93% 29.97 in 5.0 mi North 4.6 mph - 0.03 in Rain Light Rain
1:53 AM 37.9 °F 34.4 °F 36.0 °F 93% 29.95 in 5.0 mi North 4.6 mph - 0.00 in   Overcast
2:15 AM 37.4 °F 32.8 °F 35.6 °F 93% 29.94 in 5.0 mi North 5.8 mph - N/A   Overcast
2:53 AM 37.9 °F 34.4 °F 37.0 °F 97% 29.92 in 6.0 mi NNW 4.6 mph - N/A   Overcast
3:53 AM 37.9 °F 34.4 °F 37.0 °F 97% 29.92 in 6.0 mi NW 4.6 mph - N/A   Overcast
4:53 AM 39.0 °F 36.8 °F 37.0 °F 93% 29.91 in 8.0 mi NNW 3.5 mph - 0.00 in   Overcast
5:45 AM 39.2 °F - 37.4 °F 93% 29.91 in 10.0 mi Calm Calm - N/A   Overcast
5:53 AM 39.0 °F 36.8 °F 37.0 °F 93% 29.90 in 10.0 mi North 3.5 mph - N/A   Overcast
6:53 AM 39.0 °F - 37.0 °F 93% 29.89 in 10.0 mi Calm Calm - N/A   Overcast
7:53 AM 37.9 °F 34.4 °F 37.0 °F 97% 29.91 in 7.0 mi West 4.6 mph - N/A   Scattered Clouds
8:53 AM 42.1 °F - 39.0 °F 89% 29.90 in 10.0 mi Calm Calm - N/A   Overcast
9:53 AM 45.0 °F 43.5 °F 39.9 °F 82% 29.90 in 10.0 mi WSW 3.5 mph - N/A   Mostly Cloudy
10:53 AM 46.9 °F - 41.0 °F 80% 29.91 in 10.0 mi WSW 4.6 mph - N/A   Overcast
11:53 AM 52.0 °F - 43.0 °F 71% 29.87 in 10.0 mi Variable 6.9 mph - N/A   Partly Cloudy
12:53 PM 57.9 °F - 43.0 °F 58% 29.86 in 10.0 mi West 11.5 mph 24.2 mph N/A   Overcast
1:53 PM 55.0 °F - 42.1 °F 62% 29.85 in 10.0 mi West 11.5 mph - N/A   Mostly Cloudy
2:53 PM 55.0 °F - 41.0 °F 59% 29.85 in 10.0 mi WNW 8.1 mph - N/A   Scattered Clouds
3:53 PM 55.9 °F - 33.1 °F 42% 29.86 in 10.0 mi NW 8.1 mph 16.1 mph N/A   Clear
4:53 PM 55.9 °F - 30.0 °F 37% 29.88 in 10.0 mi WNW 18.4 mph 27.6 mph N/A   Partly Cloudy
5:53 PM 52.0 °F - 28.0 °F 40% 29.91 in 10.0 mi NW 10.4 mph 17.3 mph N/A   Clear
7:53 PM 46.0 °F 41.0 °F 28.0 °F 50% 29.99 in 10.0 mi NNW 10.4 mph - N/A   Clear
8:53 PM 43.0 °F 39.5 °F 27.0 °F 53% 30.02 in 10.0 mi NW 5.8 mph - N/A   Clear
9:53 PM 39.9 °F 37.8 °F 26.1 °F 58% 30.06 in 10.0 mi Variable 3.5 mph - N/A   Clear
10:53 PM 37.9 °F 33.5 °F 27.0 °F 65% 30.07 in 10.0 mi WSW 5.8 mph - N/A   Clear
11:53 PM 37.0 °F 32.4 °F 25.0 °F 62% 30.07 in 10.0 mi West 5.8 mph - N/A   Clear